Regional Weather Roundup
Issued by NWS

Home | Current Version | Previous Version | Text Only | Print | Product List | Glossary Off
Versions: 1 2 3 4 5 6 7 8 9 10 11 12 13 14 15 16 17 18 19 20 21 22 23 24 25 26 27 28 29 30 31 32 33 34 35 36 37 38 39 40 41 42 43 44 45 46 47 48 49 50

321
ASUS44 KLIX 260711
RWRLA
LOUISIANA WEATHER ROUNDUP
NATIONAL WEATHER SERVICE NEW ORLEANS LA
200 AM CDT THU MAR 26 2015

NOTE: "FAIR" INDICATES FEW OR NO CLOUDS BELOW 12,000 FEET WITH NO
      SIGNIFICANT WEATHER AND/OR OBSTRUCTIONS TO VISIBILITY.
      SKY/WX - SKY CONDITION AND SIGNIFICANT WEATHER.
      TMP - AIR TEMPERATURE.    DP   - DEWPOINT TEMPERATURE.
      RH  - RELATIVE HUMIDITY.  PRES - PRESSURE.
      HX  - HEAT INDEX.         WCI  - WIND CHILL INDEX.

*  THESE STATIONS ARE NOT NWS OR FAA STATIONS AND ARE NOT UNDER
   NWS QUALITY CONTROL.

LAZ040-048-061>063-065-066-069-260800-
SOUTHEAST LOUISIANA

CITY           SKY/WX    TMP DP  RH WIND       PRES   REMARKS
N.O. AUDUBON   NOT AVBL
N.O. INTL ARPT MOCLDY    66  62  87 SE8       29.93F
N.O. LAKEFRONT FAIR      69  63  81 SE8       29.93F
SLIDELL        FAIR      61  59  93 CALM      29.93F
BATON ROUGE    FAIR      65  60  84 SE5       29.92F
BOOTHVILLE     FAIR      64  62  93 SE5       29.95F
BELLE CHASSE   FAIR      68  63  84 SE7       29.93F
BOGALUSA*        N/A     66  62  85 S7        29.96F
GALLIANO*      PTSUNNY   72  66  80 SE3       29.94F
NEW ROADS*     FAIR      60  57  89 CALM      29.92F
GONZALES*      FAIR      66  64  91 CALM      29.92F
HAMMOND*       FAIR      64  61  88 SE5       29.95S
HOUMA*         FAIR      62  61  99 SE5       29.92F FOG
PORT FOURCHON* MOSUNNY   72  68  88 SE10      29.97F

$$

LAZ041-044-053-054-260800-
SOUTHWEST LOUISIANA

CITY           SKY/WX    TMP DP  RH WIND       PRES   REMARKS
LAKE CHARLES   FAIR      62  61  96 CALM      29.90F FOG
LAFAYETTE      FAIR      66  61  84 S3        29.91F
PATTERSON      MOCLDY    66  63  88 SE6       29.93S
SALT POINT       N/A     67  64  90 SE6       29.90F
NEW IBERIA     MOCLDY    66  62  87 S9        29.91F
CHENAULT AIRPK FAIR      61  61 100 CALM      29.91F FOG

$$

LAZ027-028-260800-
CENTRAL LOUISIANA

CITY           SKY/WX    TMP DP  RH WIND       PRES   REMARKS
FORT POLK      FAIR      60  59  95 S6        29.90F
ALEXANDRIA INT FAIR      60  58  92 S7        29.89F
ALEXANDRIA     FAIR      60  57  89 CALM      29.91F

$$

LAZ001-002-260800-
NORTHWEST LOUISIANA

CITY           SKY/WX    TMP DP  RH WIND       PRES   REMARKS
SHREVEPORT     FAIR      63  57  81 S7        29.86R
BARKSDALE AFB  FAIR      63  56  78 S9        29.86S
DTN SHREVEPORT FAIR      63  55  75 S9        29.86S

$$

LAZ014-016-260800-
NORTHEAST LOUISIANA

CITY           SKY/WX    TMP DP  RH WIND       PRES   REMARKS
MONROE         FAIR      62  57  83 S7        29.90F
TALLULAH       MOCLDY    63  56  78 S7        29.92F

$$




USA.gov is the U.S. government's official web portal to all federal, state and local government web resources and services.